Regional Weather Roundup
Issued by NWS

Home | Current Version | Previous Version | Text Only | Print | Product List | Glossary Off
Versions: 1 2 3 4 5 6 7 8 9 10 11 12 13 14 15 16 17 18 19 20 21 22 23 24 25 26 27

000
ASUS45 KBOU 280707
RWRCO

WEATHER ROUNDUP FOR COLORADO
NATIONAL WEATHER SERVICE DENVER/BOULDER CO
100 AM MDT TUE MAR 28 2017

NOTE: "FAIR" INDICATES FEW OR NO CLOUDS BELOW 12000 FEET WITH NO
SIGNIFICANT WEATHER AND/OR OBSTRUCTIONS TO VISIBILITY.

COZ001>005-013-030-031-280800-
...NORTHWEST COLORADO...

CITY           SKY/WX    TMP DP  RH WIND       PRES   REMARKS
CRAIG          FAIR      35  31  85 CALM      29.84S
HAYDEN         CLOUDY    37  30  75 SE3       29.84S
MEEKER         LGT RAIN  40  36  86 NW3       29.85R
MOUNT WERNER   NOT AVBL
STEAMBOAT SPGS FAIR      34  32  91 CALM      29.84S
WALDEN         NOT AVBL
$$

COZ006>008-011-280800-
...WEST CENTRAL VALLEYS...

CITY           SKY/WX    TMP DP  RH WIND       PRES   REMARKS
GRAND JUNCTION CLOUDY    43  42  97 E3        29.85S
MONTROSE       MOCLDY    39  37  92 NW3       29.87S
EAGLE          LGT RAIN  41  36  82 SW9       29.88R
RIFLE          LGT RAIN  44  38  79 W13G22    29.85R
DELTA          CLOUDY    42  38  86 NE8       29.87S
NUCLA          LGT RAIN  37  36  93 N3        29.91S
$$

COZ017>023-064>068-280800-
...SOUTHWEST COLORADO...

CITY           SKY/WX    TMP DP  RH WIND       PRES   REMARKS
DURANGO        CLOUDY    36  33  89 N5        29.89R
CORTEZ         CLOUDY    40  38  93 NE6       29.87R
PAGOSA SPRINGS MIX PCPN  37  36  97 CALM      29.92S
TELLURIDE      LGT SNOW  32  32 100 CALM      29.91F
WOLF CREEK PAS HVY SNOW  23  23 100 S28G41    29.97F VSB 1/4 WCI   6
$$

COZ009-010-012-014-032>034-037-058>063-280800-
...CENTRAL COLORADO...

CITY           SKY/WX    TMP DP  RH WIND       PRES   REMARKS
ASPEN          LGT SNOW  33  32  96 CALM      29.86F FOG
BUENA VISTA    FAIR      39  30  69 SE10      29.86S
COPPER MTN     LGT SNOW  28  23  80 S5        29.95S WCI  23
BERTHOUD PASS  SNOW      21  10  63 S7        29.97S VSB 1/2 WCI  13
COTTONWOOD PAS CLOUDY    36  32  87 CALM      29.91S
GUNNISON       LGT RAIN  36  33  89 S3        29.88S
KREMMLING      MOCLDY    37  34  87 CALM      29.89R
LEADVILLE      CLOUDY    30  27  88 CALM      29.89S
MONARCH PASS   CLOUDY    27  23  86 S14       30.06F WCI  15
SALIDA         CLOUDY    46  32  59 S9G18     29.94F
SUNLIGHT       LGT SNOW  27  25  93 SW12G18   29.96S WCI  16
WILKERSON PASS FOG       30  28  93 SW5       29.98S VSB 1/2 WCI  25
$$

COZ069>075-280800-
...SAN LUIS VALLEY/SANGRE DE CRISTO MOUNTAINS...

CITY           SKY/WX    TMP DP  RH WIND       PRES   REMARKS
ALAMOSA        FAIR      36  33  89 SE10      29.89S
LA VETA PASS   NOT AVBL
SAGUACHE       MOCLDY    37  32  81 SE12      29.90S
$$

COZ035-036-038>040-280800-
...NORTHERN COLORADO FRONT RANGE...

CITY           SKY/WX    TMP DP  RH WIND       PRES   REMARKS
DENVER INTL AP MOCLDY    45  41  86 W8        29.83R
DMNS CITY PARK   N/A     47  40  75 NW2       29.84R
AURORA         CLOUDY    44  43  95 NW3       29.85R
FRONT RANGE AP CLOUDY    46  43  87 SW9       29.84R
ERIE MUNI ARPT MOCLDY    45  41  86 NW5       29.83S
BOULDER MUN AP CLOUDY    45  43  93 W5        29.83S
CENTENNIAL     CLOUDY    47  39  74 CALM      29.85R
BROOMFIELD     CLOUDY    45  41  87 NW9       29.84R
FORT COLLINS   FAIR      46  42  86 N8        29.84F
LONGMONT       CLOUDY    48  43  81 N5        29.85S
$$

COZ041-046-047-076>085-087-088-280800-
...PIKES PEAK/PALMER DIVIDE AND SOUTHERN FOOTHILLS...

CITY           SKY/WX    TMP DP  RH WIND       PRES   REMARKS
COLO. SPRINGS  CLOUDY    45  40  82 SE6       29.86F
A. F. ACADEMY  NOT AVBL
SCHRIEVER AFB  MOCLDY    44  40  86 MISG      29.86F
ELLICOTT       NOT AVBL
FALCON         CLOUDY    42  40  94 S5        29.88F
FORT CARSON    FAIR      46  41  83 CALM      29.84F
LIMON          CLOUDY    44  41  89 SE9       29.87R
MONUMENT HILL  MOCLDY    37  36  93 S9        29.88S
TRINIDAD       MOCLDY    49  39  68 E8        29.83F
$$

COZ042>045-048>051-090-091-280800-
...NORTHEAST COLORADO...

CITY           SKY/WX    TMP DP  RH WIND       PRES   REMARKS
GREELEY ARPT   CLOUDY    47  42  83 NE10      29.82S
AKRON          FAIR      46  36  68 SE16      29.86R
BURLINGTON     MOCLDY    46  40  79 SE15      29.89S
WRAY           NOT AVBL
STERLING       CLOUDY    52  37  58 S16G25    29.84S
HOLYOKE        FAIR      52  41  66 SE16      29.89S
FORT MORGAN    CLOUDY    49  35  57 SE9       29.85S
$$

COZ086-089-092>099-280800-
...SOUTHEAST COLORADO...

CITY           SKY/WX    TMP DP  RH WIND       PRES   REMARKS
PUEBLO         FAIR      48  45  89 E5        29.81R
LA JUNTA       FAIR      52  37  56 E13       29.80F
LAMAR          MOCLDY    51  37  58 SE9       29.84R
SPRINGFIELD      N/A     43  36  76 SE9       29.85S
$$




USA.gov is the U.S. government's official web portal to all federal, state and local government web resources and services.